Regional Weather Roundup
Issued by NWS

Home | Current Version | Previous Version | Graphics & Text | Print | Product List | Glossary On
Versions: 1 2 3 4 5 6 7 8 9 10 11 12 13 14 15 16 17 18 19 20 21 22 23 24 25 26 27 28 29 30 31 32 33 34 35 36 37 38 39 40 41 42 43 44 45 46 47 48 49 50
000
ASUS43 KFSD 271610
RWRSD

WEATHER ROUNDUP FOR SOUTH DAKOTA
NATIONAL WEATHER SERVICE SIOUX FALLS SD
1000 AM CST THU NOV 27 2014

NOTE: "FAIR" INDICATES FEW OR NO CLOUDS BELOW 12,000 FEET WITH NO
SIGNIFICANT WEATHER AND/OR OBSTRUCTIONS TO VISIBILITY.


SDZ001>005-009-010-012>017-271700-
NORTHWEST AND NORTH CENTRAL SOUTH DAKOTA

CITY           SKY/WX    TMP DP  RH WIND       PRES   REMARKS
BUFFALO          N/A     20  16  84 SE18      29.97F WCI   5
FAITH            N/A     15  11  83 SE17      30.16F WCI  -1
MOBRIDGE       CLOUDY     7   1  76 SE17      30.27F WCI -12
$$

SDZ012>016-024>037-041>051-057-063-072>074-271700-
SOUTHWEST AND SOUTH CENTRAL SOUTH DAKOTA

CITY           SKY/WX    TMP DP  RH WIND       PRES   REMARKS
RAPID CTY ARPT FOG       20  19  96 SE9       30.08F VSB 1   WCI   9
PIERRE         CLOUDY    14   8  77 SE18      30.29F WCI  -3
CUSTER         MOSUNNY   36  25  64 W5        30.03F
ELLSWORTH AFB  CLOUDY    21  19  93 SE8       30.07F WCI  11
PHILIP         CLOUDY    19  13  77 E13       30.20F WCI   6
PINE RIDGE     PTSUNNY   31  23  72 S9        30.09F WCI  23
SPEARFISH      FOG       23  21  93 CALM      30.04F VSB 1/2
WINNER         PTSUNNY   21  10  62 SE20      30.28F WCI   6
$$

SDZ004>011-016>023-039-040-271700-
NORTHEAST SOUTH DAKOTA

CITY           SKY/WX    TMP DP  RH WIND       PRES   REMARKS
ABERDEEN       MOSUNNY   -3  -9  75 S3        30.45F
WATERTOWN      MOSUNNY   -2  -9  72 S7        30.40F WCI -15
SISSETON         N/A     -3  -8  79 S6        30.47F WCI -15
$$

SDZ017-020-022-023-036>040-048>070-271700-
SOUTHEAST SOUTH DAKOTA

CITY           SKY/WX    TMP DP  RH WIND       PRES   REMARKS
SIOUX FALLS    PTSUNNY    4  -6  63 CALM      30.50R
HURON          PTSUNNY    1  -6  72 SE10      30.45F WCI -15
CHAMBERLAIN    CLOUDY    13   5  69 SE15      30.34F WCI  -3
MITCHELL       CLOUDY     7  -5  57 SE12      30.48R WCI  -8
YANKTON        PTSUNNY    9  -2  61 E8        30.50S WCI  -4
$$

ABBREVIATIONS USED IN REMARKS
   TC - TEMPERATURE IN CELSIUS
  WCI - WIND CHILL INDEX
   HX - HEAT INDEX
  VSB - VISIBILITY



USA.gov is the U.S. government's official web portal to all federal, state and local government web resources and services.